Flag for United Kingdom Weather past 2 weeks in Telford, England, United Kingdom

Now
55 °F

Overcast.


Feels Like: 53 °F
Forecast: 54 / 65 °F
Wind: 10 mph from South

Location: Shawbury

Current Time: Aug 5, 2015 at 4:21:25 AM

Latest Report: Aug 5, 2015 at 3:50 AM


Visibility: N/A

Pressure: 29.89 "Hg

Humidity: 88%

Dew point: 52 °F

Location of TelfordLocation

Historic Weather in Telford — Graph

°F

Telford temperature yesterday

Maximum temperature yesterday: 66 °F (at 2:50 PM)
Minimum temperature yesterday: 54 °F (at 3:50 AM)
Average temperature yesterday: 59 °F

Past Weeks' High & Low Weather Summary

 TemperatureHumidityPressure
High73 °F (Aug 2, 5:50 PM)100% (Jul 26, 6:50 PM)30.15 "Hg (Jul 26, 6:50 PM)
Low39 °F (Jul 31, 3:50 AM)43% (Jul 25, 3:50 PM)29.33 "Hg (Jul 26, 9:50 PM)
Average58 °F77%29.85 "Hg
* Reported Jul 21 2:50 AM — Aug 5 2:50 AM, Telford, Weather by CustomWeather, © 2015

Note: Actual official high and low records may vary slightly from our data, if they occured in-between our weather recording intervals... More about our weather records

Advertising

Telford weather history for previous 24 hours

 ConditionsComfort  
Time TempWeatherWind HumidityBarometerVisibility
2:50 AM
Wed, Aug 5
55 °FPartly cloudy.10 mph88%29.89 "HgN/A
1:50 AM55 °FPassing clouds.9 mph88%29.89 "HgN/A
12:50 AM55 °FPassing clouds.10 mph82%29.89 "HgN/A
11:50 PM
Tue, Aug 4
57 °FPassing clouds.8 mph77%29.89 "HgN/A
10:50 PM57 °FPassing clouds.7 mph82%29.89 "HgN/A
9:50 PM57 °FBroken clouds.15 mph82%29.89 "HgN/A
8:50 PM59 °FBroken clouds.8 mph82%29.86 "HgN/A
7:50 PM59 °FBroken clouds.9 mph88%29.86 "HgN/A
6:50 PM61 °FBroken clouds.15 mph83%29.86 "HgN/A
5:50 PM61 °FPartly sunny.14 mph88%29.86 "HgN/A
4:50 PM61 °FScattered showers. Broken clouds.15 mph88%29.83 "HgN/A
3:50 PM63 °FSprinkles. Partly sunny.23 mph73%29.83 "HgN/A
2:50 PM66 °FScattered showers. Partly sunny.22 mph68%29.80 "HgN/A
1:50 PM64 °FBroken clouds.22 mph64%29.80 "HgN/A
12:50 PM64 °FBroken clouds.22 mph68%29.80 "HgN/A
11:50 AM64 °FBroken clouds.25 mph64%29.77 "HgN/A
10:50 AM63 °FPartly sunny.25 mph68%29.77 "HgN/A
9:50 AM61 °FBroken clouds.24 mph72%29.74 "HgN/A
8:50 AM63 °FBroken clouds.22 mph73%29.74 "HgN/A
7:50 AM57 °FBroken clouds.17 mph82%29.74 "HgN/A
6:50 AM57 °FPartly sunny.18 mph82%29.74 "HgN/A
5:50 AM55 °FPassing clouds.15 mph82%29.74 "HgN/A
4:50 AM54 °FPartly cloudy.10 mph88%29.74 "HgN/A
Weather by CustomWeather, © 2015

See weather overviewHow to use our weather pages